Orange, MA

8:50 PM EDT on October 19, 2017 (GMT -0400)
Orange Municipal

Weather History for KORE - March, 2015

Change the Weather History Date:

Saturday, March 28, 2015

  Actual Average Record
Temperature  
Mean Temperature 30 °F -  
Max Temperature 34 °F 45 °F 81 °F (1998)
Min Temperature 24 °F 26 °F 18 °F (2001)
Degree Days  
Heating Degree Days 36    
Moisture  
Dew Point 24 °F    
Average Humidity 76    
Maximum Humidity 89    
Minimum Humidity 44    
Precipitation  
Precipitation 0.07 in - - ()
Sea Level Pressure  
Sea Level Pressure 29.82 in    
Wind  
Wind Speed 10 mph (NNW)    
Max Wind Speed 18 mph    
Max Gust Speed 25 mph    
Visibility 10 miles    
Events Snow    
Averages and records for this station are not official NWS values.
T = Trace of Precipitation, MM = Missing Value Source: NWS Daily Summary

Daily Weather History Graph

Daily Weather History Graph

Search for Another Location

Airport or City:

Trip Planner

Search our weather history database for the weather conditions in past years. The results will help you decide how hot, cold, wet, or windy it might be!

Date:

Astronomy

Mar. 28, 2015 Rise Set
Actual Time 6:38 AM EDT 7:10 PM EDT
Civil Twilight 6:10 AM EDT 7:38 PM EDT
Nautical Twilight 5:37 AM EDT 8:12 PM EDT
Astronomical Twilight 5:02 AM EDT 8:46 PM EDT
Moon 1:02 PM EDT (3/28) 2:48 AM EDT (3/28)
Length of Visible Light 13h 27m
Length of Day
12h 31m
Waxing Gibbous, 63% of the Moon is Illuminated
Mar 28
Waxing Gibbous
Apr 4
Full
Apr 11
Last Quarter
Apr 18
New
Apr 25
First Quarter

Hourly Weather History & Observations

Time (EDT) Temp. Windchill Dew Point Humidity Pressure Visibility Wind Dir Wind Speed Gust Speed Precip Events Conditions
12:52 AM 34.0 °F 28.8 °F 28.9 °F 82% 29.78 in 10.0 mi North 5.8 mph - N/A   Overcast
1:52 AM 34.0 °F 25.5 °F 28.9 °F 82% 29.78 in 10.0 mi NW 11.5 mph - N/A   Overcast
2:52 AM 34.0 °F 28.8 °F 28.9 °F 82% 29.77 in 10.0 mi North 5.8 mph - N/A   Overcast
3:52 AM 34.0 °F 29.8 °F 28.0 °F 79% 29.75 in 10.0 mi North 4.6 mph - N/A   Overcast
4:52 AM 34.0 °F 28.8 °F 27.0 °F 75% 29.75 in 10.0 mi NNW 5.8 mph - N/A   Overcast
5:10 AM 34.0 °F 26.0 °F 27.0 °F 75% 29.74 in 10.0 mi North 10.4 mph - N/A   Overcast
5:31 AM 34.0 °F 27.2 °F 26.1 °F 73% 29.74 in 10.0 mi NNW 8.1 mph - N/A   Overcast
5:52 AM 33.1 °F 26.1 °F 26.1 °F 75% 29.75 in 10.0 mi North 8.1 mph - N/A   Overcast
6:06 AM 33.1 °F 24.9 °F 26.1 °F 75% 29.74 in 10.0 mi NNW 10.4 mph - N/A   Overcast
6:52 AM 33.1 °F 26.9 °F 26.1 °F 75% 29.77 in 10.0 mi NNW 6.9 mph - N/A   Overcast
7:05 AM 33.1 °F 24.9 °F 26.1 °F 75% 29.75 in 9.0 mi NNW 10.4 mph - 0.00 in Snow Light Snow
7:52 AM 32.0 °F 26.4 °F 25.0 °F 75% 29.79 in 9.0 mi NNW 5.8 mph 16.1 mph 0.01 in Snow Light Snow
8:02 AM 32.0 °F 24.8 °F 25.0 °F 75% 29.77 in 9.0 mi North 8.1 mph - 0.00 in Snow Light Snow
8:52 AM 28.9 °F 20.4 °F 26.1 °F 89% 29.80 in 9.0 mi NNW 9.2 mph - 0.02 in Snow Light Snow
9:52 AM 30.0 °F 21.7 °F 26.1 °F 85% 29.82 in 9.0 mi NNW 9.2 mph - 0.02 in Snow Light Snow
10:28 AM 30.0 °F 20.0 °F 26.1 °F 85% 29.80 in 9.0 mi NNW 12.7 mph - 0.00 in Snow Light Snow
10:52 AM 30.0 °F 21.1 °F 26.1 °F 85% 29.83 in 9.0 mi NNW 10.4 mph - 0.00 in Snow Light Snow
11:10 AM 30.0 °F 18.7 °F 25.0 °F 82% 29.79 in 9.0 mi North 16.1 mph 20.7 mph 0.00 in Snow Light Snow
11:32 AM 30.0 °F 21.1 °F 27.0 °F 88% 29.79 in 9.0 mi NNW 10.4 mph - 0.01 in Snow Light Snow
11:41 AM 30.0 °F 20.5 °F 27.0 °F 88% 29.79 in 9.0 mi NNW 11.5 mph - 0.01 in Snow Light Snow
11:52 AM 30.0 °F 20.5 °F 26.1 °F 85% 29.81 in 9.0 mi NNW 11.5 mph - 0.01 in Snow Light Snow
12:18 PM 30.9 °F 21.7 °F 26.1 °F 82% 29.78 in 9.0 mi NNW 11.5 mph - 0.00 in Snow Light Snow
12:52 PM 30.0 °F 20.0 °F 26.1 °F 85% 29.80 in 9.0 mi NNW 12.7 mph - 0.00 in Snow Light Snow
1:14 PM 30.0 °F 19.1 °F 25.0 °F 82% 29.78 in 9.0 mi NNW 15.0 mph - 0.00 in Snow Light Snow
1:52 PM 30.0 °F 17.9 °F 25.0 °F 82% 29.81 in 9.0 mi NNW 18.4 mph 25.3 mph 0.00 in Snow Light Snow
2:52 PM 30.9 °F 19.8 °F 25.0 °F 79% 29.80 in 9.0 mi NNW 16.1 mph 21.9 mph 0.00 in Snow Light Snow
3:52 PM 32.0 °F 21.6 °F 25.0 °F 75% 29.81 in 9.0 mi NNW 15.0 mph - 0.00 in Snow Light Snow
4:52 PM 33.1 °F 24.4 °F 24.1 °F 70% 29.83 in 9.0 mi NNW 11.5 mph 21.9 mph 0.01 in   Overcast
5:52 PM 33.1 °F 24.4 °F 21.9 °F 64% 29.86 in 10.0 mi North 11.5 mph - 0.00 in   Overcast
6:52 PM 30.9 °F 21.2 °F 21.9 °F 69% 29.91 in 10.0 mi NNW 12.7 mph - N/A   Overcast
7:52 PM 30.0 °F 20.5 °F 19.0 °F 64% 29.95 in 10.0 mi NNW 11.5 mph 20.7 mph 0.00 in   Overcast
8:52 PM 28.0 °F 18.6 °F 17.1 °F 63% 30.00 in 10.0 mi NNW 10.4 mph - N/A   Overcast
9:52 PM 27.0 °F 14.7 °F 12.9 °F 56% 30.03 in 10.0 mi NNW 16.1 mph - N/A   Overcast
10:52 PM 25.0 °F 13.6 °F 7.0 °F 46% 30.06 in 10.0 mi NNW 12.7 mph - N/A   Overcast
11:52 PM 24.1 °F 11.5 °F 5.0 °F 44% 30.08 in 10.0 mi NNW 15.0 mph - N/A   Overcast